| time (UTC) | temp C | wind direction | speed KPH | gust KPH | rain 1hr cm | rain 24hr cm | rain mn cm | humidity % | barometer mb |
| 20260505171529 | 19 | 269 | 11.3 | 20.9 | 0.00 | 0.00 | 0.00 | 58 | 1009.3 |
| 20260505170029 | 18 | 281 | 11.3 | 17.7 | 0.00 | 0.00 | 0.00 | 56 | 1009.2 |
| 20260505164544 | 18 | 267 | 9.7 | 14.5 | 0.00 | 0.00 | 0.00 | 57 | 1009.2 |
| 20260505163025 | 18 | 281 | 6.4 | 14.5 | 0.00 | 0.00 | 0.00 | 59 | 1009.1 |
| 20260505161524 | 18 | 203 | 4.8 | 9.7 | 0.00 | 0.00 | 0.00 | 59 | 1009.0 |
| 20260505153016 | 17 | 98 | 6.4 | 8.0 | 0.00 | 0.00 | 0.00 | 62 | 1009.0 |
| 20260505151517 | 17 | 109 | 6.4 | 9.7 | 0.00 | 0.00 | 0.00 | 63 | 1008.8 |
| 20260505140109 | 14 | 74 | 12.9 | 17.7 | 0.00 | 0.00 | 0.00 | 68 | 1008.0 |
| 20260505124544 | -17 | 0.0 | 0.0 | 0.00 | 0.00 | 0.00 | 1007.2 | ||
| 20260505123039 | -17 | 0.0 | 0.0 | 0.00 | 0.00 | 0.00 | 1007.1 | ||
| 20260505121537 | -17 | 0.0 | 0.0 | 0.00 | 0.00 | 0.00 | 1007.0 | ||
| 20260505120030 | -17 | 0.0 | 0.0 | 0.00 | 0.00 | 0.00 | 1006.8 | ||
| 20260505114533 | -17 | 0.0 | 0.0 | 0.00 | 0.00 | 0.00 | 1006.7 | ||
| 20260505113022 | -17 | 0.0 | 0.0 | 0.00 | 0.00 | 0.00 | 1006.6 | ||
| 20260505111517 | -17 | 0.0 | 0.0 | 0.00 | 0.00 | 0.00 | 1006.5 | ||
| 20260505101604 | 13 | 87 | 14.5 | 16.1 | 0.00 | 0.00 | 0.00 | 66 | 1006.1 |
| 20260505100057 | 14 | 111 | 11.3 | 17.7 | 0.00 | 0.00 | 0.00 | 65 | 1006.2 |
| 20260505094559 | 15 | 82 | 11.3 | 14.5 | 0.00 | 0.00 | 0.00 | 64 | 1006.0 |
| 20260505093054 | 14 | 247 | 1.6 | 6.4 | 0.00 | 0.00 | 0.00 | 64 | 1006.0 |
| 20260505091557 | 15 | 39 | 4.8 | 8.0 | 0.00 | 0.00 | 0.00 | 63 | 1005.8 |
| 20260505090057 | 15 | 94 | 6.4 | 9.7 | 0.00 | 0.00 | 0.00 | 62 | 1005.7 |
| 20260505084550 | 15 | 70 | 1.6 | 14.5 | 0.00 | 0.00 | 0.00 | 61 | 1005.7 |
| 20260505083049 | 15 | 66 | 9.7 | 12.9 | 0.00 | 0.00 | 0.00 | 61 | 1005.7 |
| 20260505081557 | 15 | 81 | 8.0 | 12.9 | 0.00 | 0.00 | 0.00 | 63 | 1005.7 |
| 20260505080048 | 15 | 85 | 3.2 | 9.7 | 0.00 | 0.00 | 0.00 | 63 | 1005.6 |
| 20260505074602 | 15 | 81 | 11.3 | 12.9 | 0.00 | 0.00 | 0.00 | 63 | 1005.5 |
| 20260505073038 | 15 | 80 | 4.8 | 9.7 | 0.00 | 0.00 | 0.00 | 63 | 1005.5 |
| 20260505071532 | 14 | 82 | 9.7 | 11.3 | 0.00 | 0.00 | 0.00 | 70 | 1005.3 |
| 20260505070030 | 13 | 93 | 6.4 | 6.4 | 0.00 | 0.00 | 0.00 | 72 | 1005.0 |
| 20260505064527 | 14 | 285 | 1.6 | 6.4 | 0.00 | 0.00 | 0.00 | 68 | 1004.8 |
| 20260505063034 | 16 | 225 | 6.4 | 9.7 | 0.00 | 0.00 | 0.00 | 60 | 1004.7 |
| 20260505061530 | 16 | 101 | 9.7 | 11.3 | 0.00 | 0.00 | 0.00 | 60 | 1004.4 |
| 20260505060025 | 16 | 104 | 9.7 | 20.9 | 0.00 | 0.00 | 0.00 | 58 | 1004.1 |
| 20260505054527 | 17 | 86 | 19.3 | 24.1 | 0.00 | 0.00 | 0.00 | 55 | 1003.9 |
| 20260505053022 | 17 | 108 | 14.5 | 19.3 | 0.00 | 0.00 | 0.00 | 55 | 1003.9 |
| 20260505051522 | 18 | 93 | 19.3 | 25.7 | 0.00 | 0.00 | 0.00 | 54 | 1003.8 |
| 20260505041518 | 18 | 89 | 11.3 | 14.5 | 0.00 | 0.00 | 0.00 | 54 | 1003.7 |
| 20260505040018 | 18 | 89 | 9.7 | 14.5 | 0.00 | 0.00 | 0.00 | 53 | 1003.7 |
| 20260505034519 | 18 | 92 | 9.7 | 12.9 | 0.00 | 0.00 | 0.00 | 54 | 1003.5 |
| 20260505033029 | 18 | 98 | 9.7 | 12.9 | 0.00 | 0.00 | 0.00 | 57 | 1003.4 |
| 20260505031516 | 19 | 122 | 4.8 | 8.0 | 0.00 | 0.00 | 0.00 | 56 | 1003.2 |
| 20260505030016 | 20 | 107 | 6.4 | 8.0 | 0.00 | 0.00 | 0.00 | 54 | 1003.3 |
| 20260505024533 | 22 | 91 | 8.0 | 9.7 | 0.00 | 0.00 | 0.00 | 50 | 1003.2 |
| 20260505023015 | 23 | 91 | 6.4 | 8.0 | 0.00 | 0.00 | 0.00 | 42 | 1003.3 |
| 20260505021528 | 24 | 89 | 6.4 | 8.0 | 0.00 | 0.00 | 0.00 | 37 | 1003.3 |
| 20260505020011 | 25 | 77 | 8.0 | 9.7 | 0.00 | 0.00 | 0.00 | 36 | 1003.3 |
| 20260505014510 | 25 | 84 | 8.0 | 8.0 | 0.00 | 0.00 | 0.00 | 34 | 1003.3 |
| 20260505013009 | 25 | 74 | 6.4 | 9.7 | 0.00 | 0.00 | 0.00 | 35 | 1003.6 |
| 20260505011508 | 25 | 70 | 4.8 | 8.0 | 0.00 | 0.00 | 0.00 | 36 | 1003.7 |
| 20260505010006 | 26 | 67 | 3.2 | 12.9 | 0.00 | 0.00 | 0.00 | 32 | 1003.8 |
| 20260505004513 | 26 | 7 | 6.4 | 17.7 | 0.00 | 0.00 | 0.00 | 32 | 1003.9 |
| 20260505003002 | 26 | 53 | 3.2 | 16.1 | 0.00 | 0.00 | 0.00 | 29 | 1003.8 |
| 20260505001600 | 26 | 338 | 14.5 | 17.7 | 0.00 | 0.00 | 0.00 | 29 | 1003.8 |
| 20260505000058 | 26 | 318 | 14.5 | 24.1 | 0.00 | 0.00 | 0.00 | 26 | 1003.8 |
| 20260504234557 | 26 | 326 | 16.1 | 22.5 | 0.00 | 0.00 | 0.00 | 28 | 1003.7 |
| 20260504233100 | 26 | 329 | 14.5 | 22.5 | 0.00 | 0.00 | 0.00 | 27 | 1003.9 |
| 20260504231549 | 26 | 314 | 12.9 | 17.7 | 0.00 | 0.00 | 0.00 | 30 | 1004.0 |
| 20260504230047 | 26 | 349 | 12.9 | 25.7 | 0.00 | 0.00 | 0.00 | 34 | 1004.1 |
| 20260504224545 | 26 | 308 | 12.9 | 20.9 | 0.00 | 0.00 | 0.00 | 35 | 1004.2 |
| 20260504223052 | 25 | 269 | 6.4 | 16.1 | 0.00 | 0.00 | 0.00 | 35 | 1004.4 |
| 20260504221546 | 25 | 285 | 11.3 | 20.9 | 0.00 | 0.00 | 0.00 | 34 | 1004.5 |
| 20260504220051 | 25 | 283 | 4.8 | 12.9 | 0.00 | 0.00 | 0.00 | 35 | 1004.6 |
| 20260504214537 | 26 | 319 | 3.2 | 8.0 | 0.00 | 0.00 | 0.00 | 33 | 1004.9 |
| 20260504213032 | 25 | 276 | 8.0 | 17.7 | 0.00 | 0.00 | 0.00 | 36 | 1005.1 |
| 20260504211529 | 25 | 249 | 1.6 | 20.9 | 0.00 | 0.00 | 0.00 | 34 | 1005.2 |
| 20260504210028 | 25 | 295 | 14.5 | 22.5 | 0.00 | 0.00 | 0.00 | 36 | 1005.2 |
| 20260504204531 | 24 | 253 | 9.7 | 12.9 | 0.00 | 0.00 | 0.00 | 36 | 1005.5 |
| 20260504203025 | 24 | 292 | 9.7 | 16.1 | 0.00 | 0.00 | 0.00 | 38 | 1005.7 |
| 20260504201519 | 23 | 295 | 4.8 | 17.7 | 0.00 | 0.00 | 0.00 | 36 | 1005.8 |
| 20260504200019 | 23 | 270 | 4.8 | 12.9 | 0.00 | 0.00 | 0.00 | 38 | 1005.9 |
| 20260504194517 | 23 | 162 | 4.8 | 12.9 | 0.00 | 0.00 | 0.00 | 37 | 1005.9 |
| 20260504193017 | 23 | 301 | 8.0 | 16.1 | 0.00 | 0.00 | 0.00 | 41 | 1006.1 |
| 20260504191514 | 23 | 245 | 4.8 | 12.9 | 0.00 | 0.00 | 0.00 | 39 | 1006.3 |
| 20260504190010 | 22 | 278 | 3.2 | 17.7 | 0.00 | 0.00 | 0.00 | 41 | 1006.4 |
| 20260504184513 | 22 | 207 | 3.2 | 16.1 | 0.00 | 0.00 | 0.00 | 40 | 1006.4 |
| 20260504183008 | 22 | 201 | 4.8 | 14.5 | 0.00 | 0.00 | 0.00 | 41 | 1006.5 |
| 20260504181505 | 21 | 209 | 9.7 | 12.9 | 0.00 | 0.00 | 0.00 | 43 | 1006.6 |
| 20260504180004 | 21 | 257 | 11.3 | 14.5 | 0.00 | 0.00 | 0.00 | 43 | 1006.7 |
| 20260504174502 | 21 | 285 | 8.0 | 12.9 | 0.00 | 0.00 | 0.00 | 45 | 1006.7 |
| 20260504173101 | 21 | 246 | 9.7 | 14.5 | 0.00 | 0.00 | 0.00 | 46 | 1006.7 |